Location: Byszew
(52.1813°N, 19.2693°E)
Time: 23:21:18
(UTC+00:00)

Cosmos 2322 Rocket - Pass Details

Date: 28 June 2021
Orbit: 833 x 850 km, 71.0° (Epoch: 26 July)

Event Time Altitude Azimuth Distance (km) Brightness Sun altitude
Rises 20:32:18 0° 278° (W) 3,420 6.0 -9.1°
Reaches altitude 10° 20:35:49 10° 300° (WNW) 2,485 5.7 -9.4°
Maximum altitude 20:39:13 16° 336° (NNW) 2,099 5.7 -9.6°
Drops below altitude 10° 20:42:37 10° 13° (NNE) 2,486 5.4 -9.9°
Sets 20:46:09 0° 35° (NE) 3,420 5.7 -10.1°
